#timestamp,LO_Frequency,Hit,StdDev 
1604026815.8,286046994.5,P
1604026835.6,286046994.1,P
1604026855.4,286046994.4,P
1604026875.3,286046994.1,Y
1604026895.1,286047001.0,P
1604026915.9,286046998.1,N
1604026935.7,286047002.3,N
1604026955.5,286047001.0,N
1604026975.4,286047001.0,N
1604026995.2,286046999.0,N
1604027015.0,286046997.1,N
1604027015.9,286046997.1,N
1604027035.8,286046998.7,N
1604027055.6,286046998.2,N
1604027075.5,286046999.0,N
1604027095.3,286046997.0,N
1604027115.1,286046996.6,N
1604027135.9,286046999.5,N
1604027155.7,286046998.9,N
1604027175.5,286046998.2,N
1604027195.4,286046998.8,N
1604027215.2,286046999.6,N
1604027235.1,286046998.8,N
1604027236.0,286046998.8,N
1604027255.8,286046999.0,N
1604027275.6,286046998.6,N
1604027295.5,286046996.6,N
1604027315.3,286046996.7,N
1604027335.1,286046997.7,N
1604027355.9,286046995.1,Y
1604027405.8,286046996.2,E
1604027415.7,286046997.2,N
1604027435.5,286046998.2,P
1604027455.3,286046998.6,N
1604027475.2,286046998.5,N
1604027495.0,286047001.0,N
1604027495.9,286047001.0,N
1604027515.8,286046998.4,N
1604027535.6,286046999.6,N
1604027555.4,286046996.6,N
1604027575.3,286046997.8,N
1604027595.1,286046997.9,N
1604027615.9,286046997.4,N
1604027635.7,286046997.3,N
1604027655.5,286046999.2,N
1604027675.4,286046996.5,N
1604027695.2,286046996.9,N
1604027715.0,286046997.3,N
1604027715.9,286046997.3,N
1604027735.8,286046997.0,N
1604027755.6,286046994.9,Y
1604027775.5,286046996.6,P
1604027795.3,286046997.4,P
1604027845.2,286046999.4,E
1604027855.1,286046996.6,N
1604027856.0,286046996.6,P
1604027875.8,286046999.6,P
1604027895.7,286046998.4,N
1604027915.5,286046998.3,N
1604027935.3,286046999.6,N
1604027955.2,286046999.6,N
1604027975.0,286046996.8,N
1604027975.9,286046996.8,N
1604027995.8,286046997.1,N
1604028015.6,286046997.1,N
1604028035.4,286046997.1,N
1604028055.3,286046997.5,N
1604028075.1,286046997.6,N
1604028095.9,286046997.7,N
1604028115.7,286046997.1,N
1604028135.5,286046997.8,N
1604028155.4,286046995.7,Y
1604028175.2,286046996.6,P
1604028195.1,286046997.2,P
1604028196.0,286046997.2,P
1604028215.8,286046997.4,Y
1604028235.6,286047000.4,P
1604028255.5,286047002.8,N
1604028275.3,286047002.6,N
1604028295.2,286047001.9,N
1604028315.9,286047001.6,N
1604028335.7,286047002.3,N
1604028355.6,286047000.6,N
1604028375.4,286046998.2,N
1604028395.2,286047000.5,N
1604028415.1,286046998.1,N
1604028416.0,286046998.1,N
1604028435.8,286047000.9,N
1604028455.7,286047000.9,N
1604028475.5,286047000.8,N
1604028495.3,286046998.7,N
1604028515.2,286047000.0,N
1604028535.0,286047000.5,N
1604028535.9,286047000.5,N
1604028555.8,286047000.4,N
1604028575.6,286047001.1,N
1604028595.4,286047000.0,N
1604028615.3,286047002.2,N
1604028635.1,286047002.5,N
1604028655.8,286046998.4,N
1604028675.7,286046999.5,N
1604028695.5,286046997.4,N
1604028715.4,286046997.2,N
1604028735.2,286046998.9,N
1604028755.0,286046998.6,N
1604028755.9,286046998.6,N
1604028775.8,286047000.4,N
1604028795.6,286047000.9,N
1604028815.5,286047001.2,N
1604028835.3,286046998.8,N
1604028855.1,286046996.8,N
1604028875.9,286046998.8,N
1604028895.7,286046998.4,N
1604028915.6,286046999.6,N
1604028935.4,286046997.6,N
1604028955.2,286046997.7,N
1604028975.1,286046995.6,Y
1604028976.0,286046995.6,P
1604028995.8,286046997.6,N
1604029015.6,286046997.4,N
1604029035.5,286046997.4,N
1604029055.3,286046997.6,N
1604029075.2,286046997.4,N
1604029095.9,286046997.1,N
1604029115.7,286046997.1,N
1604029135.6,286046997.2,Y
1604029155.4,286047000.5,P
1604029175.2,286047000.8,N
1604029195.1,286047000.8,N
1604029196.0,286047000.8,N
1604029215.8,286047001.1,N
1604029235.7,286046998.1,N
1604029255.5,286046998.1,N
1604029275.3,286047001.0,N
1604029295.2,286047000.8,N
1604029315.0,286047002.2,N
1604029315.9,286047002.2,N
1604029335.7,286047002.7,N
1604029355.6,286046999.8,N
1604029375.4,286047002.8,N
1604029395.3,286046999.9,N
1604029415.1,286047000.0,N
1604029416.0,286047000.0,N
1604029435.8,286047001.8,N
1604029455.7,286047001.9,N
1604029475.5,286046998.1,N
1604029495.3,286046998.4,N
1604029515.2,286046998.9,N
1604029535.0,286046997.4,N
1604029535.9,286046997.4,N
1604029555